JA1RBY-13 Weather Reports


time (UTC)temp
C
wind
direction
speed
KPH
gust
KPH
rain 1hr
cm
rain 24hr
cm
rain mn
cm
humidity
%
barometer
mb
20260831231956 27 18 6.4 9.7 0.00 0.00 0.00 59 1017.5
20260831224955 27 13 0.0 0.0 0.00 0.00 0.00 60 1017.6
20260831221956 26 55 8.0 8.0 0.00 0.00 0.00 62 1017.5
20260831214956 24 49 4.8 11.3 0.00 0.00 0.00 67 1017.5
20260831211955 23 62 4.8 8.0 0.00 0.00 0.00 68 1017.4
20260831204957 23 60 4.8 12.9 0.00 0.00 0.00 68 1017.2
20260831201955 23 56 4.8 9.7 0.00 0.00 0.00 68 1017.1
20260831194957 23 53 4.8 8.0 0.00 0.00 0.00 67 1017.2
20260831191956 23 47 4.8 8.0 0.00 0.00 0.00 67 1017.2
20260831184956 23 47 3.2 6.4 0.00 0.00 0.00 67 1017.2
20260831181957 23 39 1.6 0.0 0.00 0.00 0.00 67 1017.2
20260831174956 23 46 6.4 9.7 0.00 0.00 0.00 67 1017.4
20260831171956 23 42 3.2 4.8 0.00 0.00 0.00 67 1017.5
20260831164956 23 44 3.2 4.8 0.00 0.00 0.00 67 1017.4
20260831161955 23 48 3.2 6.4 0.00 0.00 0.00 67 1017.3
20260831154957 23 35 0.0 1.6 0.00 0.00 0.00 67 1017.5
20260831151956 23 11 0.0 1.6 0.00 0.00 0.00 66 1017.6
20260831144956 23 60 1.6 8.0 0.00 0.00 0.00 66 1017.5
20260831141956 23 46 0.0 1.6 0.00 0.00 0.00 66 1017.3
20260831134956 24 59 3.2 6.4 0.00 0.00 0.00 66 1017.3
20260831131957 24 86 1.6 1.6 0.00 0.00 0.00 65 1017.1
20260831124956 24 105 6.4 9.7 0.00 0.00 0.00 64 1017.1
20260831121957 24 81 3.2 3.2 0.00 0.00 0.00 62 1017.0
20260831114955 25 52 1.6 4.8 0.00 0.00 0.00 61 1017.0
20260831111957 25 101 1.6 3.2 0.00 0.00 0.00 61 1016.9
20260831104957 25 58 4.8 11.3 0.00 0.00 0.00 62 1016.6
20260831101956 25 73 8.0 14.5 0.00 0.00 0.00 63 1016.1
20260831094956 25 93 6.4 14.5 0.00 0.00 0.00 62 1015.5
20260831091956 26 92 8.0 11.3 0.00 0.00 0.00 62 1015.1
20260831084957 26 109 3.2 4.8 0.00 0.00 0.00 61 1014.8
20260831081956 26 88 4.8 9.7 0.00 0.00 0.00 60 1014.7
20260831074956 26 93 6.4 11.3 0.00 0.00 0.00 60 1014.5
20260831071956 26 87 4.8 9.7 0.00 0.00 0.00 59 1014.2
20260831064955 27 98 4.8 11.3 0.00 0.00 0.00 59 1014.1
20260831061955 27 129 4.8 6.4 0.00 0.00 0.00 59 1014.0
20260831054956 27 90 6.4 9.7 0.00 0.00 0.00 59 1013.9
20260831051957 27 68 3.2 3.2 0.00 0.00 0.00 59 1014.0
20260831044955 27 75 4.8 9.7 0.00 0.00 0.00 61 1014.2
20260831041957 26 118 6.4 9.7 0.00 0.00 0.00 61 1014.3
20260831034957 27 73 4.8 11.3 0.00 0.00 0.00 59 1014.3
20260831031957 26 60 3.2 4.8 0.00 0.00 0.00 61 1014.4
20260831024956 25 39 4.8 8.0 0.00 0.00 0.00 63 1014.6
20260831021956 25 56 4.8 12.9 0.00 0.00 0.00 63 1014.6
20260831014957 25 47 3.2 8.0 0.00 0.00 0.00 62 1014.5
20260831011957 26 32 0.0 6.4 0.00 0.00 0.00 61 1014.4
20260831004956 25 21 3.2 3.2 0.00 0.00 0.00 64 1014.3
20260831001956 25 43 4.8 4.8 0.00 0.00 0.00 65 1014.1
20260830234957 25 31 3.2 6.4 0.00 0.00 0.00 64 1014.0